Content
SEND FEEDBACK

Daily
Averages
Monthly
Summary
Canada

VANCOUVER, BRITISH COLUMBIA


Home > North America > Canada > British Columbia
Elevation: 7 feet     Latitude: 49 11N     Longitude: 123 10W

WEATHER
 
SELECT A DAY
Number of Records: 249,842;   Date Range: 5/15/97 - 9/17/14
 
SHARE

PRINT THIS DATA

[ ← Previous Day ]
WEATHER ALMANAC - JULY 22, 2013
[ Next Day → ]
[ °C ]   °F
Weather ElementAverageHighLow
Temperature60.4 °F68 °F (5:15 pm)55.4 °F (12:55 am)
Dewpoint55.2 °F57.2 °F (12:15 pm)53.6 °F (12:35 am)
Humidity83.5 %94 % (12:55 am)68 % (4:55 pm)
Barometer30.00 in30.04 in (10:35 am)29.92 in (12:35 am)
Wind Speed5.2 mph11.5 mph (9:55 am)
Wind Gust17.3 mph (8:15 am)
Weather ElementAverage
Visibility9.2 mi
Wind DirectionSSE (147.2 °)

Weather ElementTotal
Precipitation---
Heating Degree Days3.3 (Base 65)
Growing Degree Days11.7 (Base 50)
Averaged from 68 records on July 22, 2013
WEATHER CONDITIONS BREAKOUT
WIND DIRECTION BREAKOUT
WEATHER BY HOUR - JULY 22, 2013
[ °C ]   °F
Local TimeTemperatureDewpointHumidityBarometerVisibilityWind DirectionWind SpeedGust SpeedPrecipitationEventsConditions
12:35 AM57.2 °F53.6 °F88 %29.92 in9.0 miSouth (170°)5.8 mphClear
12:55 AM55.4 °F53.6 °F94 %29.92 in9.0 miSouth (190°)8.1 mphClear
1:15 AM55.4 °F53.6 °F94 %29.92 in10.0 miSouth (180°)5.8 mphClear
1:35 AM55.4 °F53.6 °F94 %29.93 in10.0 miSouth (180°)5.8 mphClear
1:55 AM55.4 °F53.6 °F94 %29.93 in9.0 miSouth (170°)3.5 mphClear
2:15 AM55.4 °F53.6 °F94 %29.93 in10.0 miSouth (190°)4.6 mphClear
2:35 AM55.4 °F53.6 °F94 %29.93 in10.0 miSouth (180°)4.6 mphClear
2:55 AM55.4 °F53.6 °F94 %29.93 in10.0 miSouth (190°)4.6 mphClear
3:15 AM55.4 °F53.6 °F94 %29.94 in10.0 miSouth (190°)5.8 mphClear
3:35 AM55.4 °F53.6 °F94 %29.94 in10.0 miSouth (190°)4.6 mphClear
3:55 AM55.4 °F53.6 °F94 %29.95 in10.0 miCalmClear
4:15 AM55.4 °F53.6 °F94 %29.95 in10.0 miSouth (170°)3.5 mphClear
4:35 AM55.4 °F53.6 °F94 %29.95 in10.0 miSouth (170°)3.5 mphPartly Cloudy
4:55 AM55.4 °F53.6 °F94 %29.96 in9.0 miSouth (170°)3.5 mphClear
5:15 AM55.4 °F53.6 °F94 %29.96 in9.0 miSouth (180°)4.6 mphClear
5:35 AM55.4 °F53.6 °F94 %29.96 in9.0 miSouth (180°)4.6 mphScattered Clouds
5:55 AM55.4 °F53.6 °F94 %29.97 in7.0 miSouth (180°)4.6 mphMostly Cloudy
6:35 AM55.4 °F53.6 °F94 %29.98 in9.0 miSouth (180°)6.9 mphOvercast
6:55 AM55.4 °F53.6 °F94 %29.98 in8.0 miSouth (180°)6.9 mphOvercast
7:55 AM55.4 °F53.6 °F94 %30.00 in7.0 miSouth (180°)9.2 mphOvercast
8:15 AM55.4 °F53.6 °F94 %30.00 in8.0 miSouth (190°)10.4 mph17.3 mphMostly Cloudy
8:35 AM55.4 °F53.6 °F94 %30.01 in8.0 miSouth (190°)10.4 mphMostly Cloudy
8:55 AM55.4 °F53.6 °F94 %30.02 in8.0 miSouth (190°)8.1 mphOvercast
9:15 AM57.2 °F53.6 °F88 %30.02 in8.0 miSouth (180°)9.2 mphOvercast
9:35 AM57.2 °F55.4 °F94 %30.02 in8.0 miSouth (190°)10.4 mphOvercast
9:55 AM57.2 °F55.4 °F94 %30.03 in9.0 miSouth (190°)11.5 mph16.1 mphOvercast
10:15 AM57.2 °F55.4 °F94 %30.03 in8.0 miSouth (190°)9.2 mphOvercast
10:35 AM59.0 °F55.4 °F88 %30.04 in9.0 miSouth (190°)10.4 mphOvercast
10:55 AM59.0 °F55.4 °F88 %30.04 in9.0 miSouth (190°)10.4 mphOvercast
11:15 AM60.8 °F55.4 °F82 %30.04 in9.0 miSouth (180°)6.9 mphOvercast
11:35 AM62.6 °F55.4 °F77 %30.04 in9.0 miSouth (190°)6.9 mphMostly Cloudy
11:55 AM64.4 °F55.4 °F73 %30.04 in9.0 miSouth (180°)8.1 mphPartly Cloudy
12:15 PM64.4 °F57.2 °F77 %30.04 in9.0 miSSW (210°)10.4 mphClear
12:35 PM64.4 °F57.2 °F77 %30.04 in10.0 miSSW (200°)10.4 mphClear
12:55 PM66.2 °F57.2 °F73 %30.04 in9.0 miSSW (210°)9.2 mphClear
1:15 PM62.6 °F55.4 °F77 %30.04 in9.0 miCalmClear
1:35 PM62.6 °F55.4 °F77 %30.04 in10.0 miNorth (360°)5.8 mphClear
1:55 PM62.6 °F55.4 °F77 %30.04 in9.0 miNorth (360°)5.8 mphClear
2:15 PM64.4 °F55.4 °F73 %30.04 in9.0 miNorth (10°)5.8 mphClear
2:35 PM62.6 °F55.4 °F77 %30.04 in9.0 miNorth (10°)3.5 mphClear
2:55 PM64.4 °F55.4 °F73 %30.03 in10.0 miNorth (360°)4.6 mphClear
3:15 PM64.4 °F55.4 °F73 %30.03 in9.0 miNorth (360°)4.6 mphClear
3:35 PM66.2 °F57.2 °F73 %30.03 in9.0 miNorth (10°)4.6 mphClear
3:55 PM66.2 °F57.2 °F73 %30.03 in9.0 miNorth (350°)3.5 mphClear
4:15 PM64.4 °F57.2 °F77 %30.03 in10.0 miNNW (340°)4.6 mphClear
4:35 PM64.4 °F55.4 °F73 %30.02 in10.0 miNorthClear
4:55 PM66.2 °F55.4 °F68 %30.02 in9.0 miNorth (360°)4.6 mphClear
5:15 PM68.0 °F57.2 °F68 %30.01 in9.0 miNorth (10°)4.6 mphClear
5:35 PM66.2 °F57.2 °F73 %30.01 in9.0 miNorth (10°)5.8 mphClear
5:55 PM64.4 °F57.2 °F77 %30.01 in10.0 miCalmClear
6:15 PM66.2 °F57.2 °F73 %30.00 in9.0 miNorthClear
6:35 PM64.4 °F55.4 °F73 %30.00 in10.0 miNorthClear
6:55 PM64.4 °F55.4 °F73 %30.00 in9.0 miCalmClear
7:15 PM62.6 °F55.4 °F77 %30.00 in9.0 miCalmClear
7:35 PM62.6 °F55.4 °F77 %30.00 in10.0 miCalmClear
7:55 PM62.6 °F55.4 °F77 %29.99 in8.0 miCalmClear
8:15 PM62.6 °F55.4 °F77 %29.99 in9.0 miCalmClear
8:35 PM62.6 °F55.4 °F77 %29.99 in9.0 miCalmClear
8:55 PM64.4 °F57.2 °F77 %29.99 in9.0 miNorthClear
9:15 PM64.4 °F57.2 °F77 %30.00 in9.0 miCalmClear
9:35 PM64.4 °F57.2 °F77 %30.00 in10.0 miSouth (170°)3.5 mphClear
9:55 PM62.6 °F57.2 °F82 %30.01 in9.0 miSouth (180°)4.6 mphClear
10:15 PM62.6 °F57.2 °F82 %30.01 in10.0 miSouth (180°)6.9 mphClear
10:35 PM62.6 °F57.2 °F82 %30.02 in10.0 miSouth (170°)3.5 mphClear
10:55 PM62.6 °F55.4 °F77 %30.02 in10.0 miSouth (170°)3.5 mphClear
11:15 PM62.6 °F55.4 °F77 %30.01 in10.0 miSE (140°)3.5 mphClear
11:35 PM60.8 °F55.4 °F82 %30.02 in10.0 miSouth (170°)4.6 mphClear
11:55 PM59.0 °F55.4 °F88 %30.02 in10.0 miCalmClear
Hourly data recorded from CZBB, located miles away from Vancouver, British Columbia







STORIES FROM OUR PARTNERS